Regional Weather Roundup
Issued by NWS Charleston, SC

Current Version | Previous Version | Graphics & Text | Print | Product List | Glossary On
Versions: 1 2 3 4 5 6 7 8 9 10 11 12 13 14 15 16 17 18 19 20 21 22 23 24 25 26 27 28 29 30 31 32 33 34 35 36 37 38 39 40 41 42 43 44 45 46 47 48 49 50
000 ASUS42 KCHS 301512 RWRCHS REGIONAL WEATHER ROUNDUP NATIONAL WEATHER SERVICE CHARLESTON SC 1100 AM EDT TUE JUN 30 2015 NOTE: "FAIR" INDICATES FEW OR NO CLOUDS BELOW 12,000 FEET WITH NO SIGNIFICANT WEATHER AND/OR OBSTRUCTIONS TO VISIBILITY. NOT ALL STATIONS ARE QUALITY CONTROLLED BY THE NATIONAL WEATHER SERVICE. USE DATA WITH CAUTION...ESPECIALLY DEWPOINT OBSERVATIONS. SCZ027-030-031-034>040-042>050-301600- ...SOUTHEAST SOUTH CAROLINA... CITY SKY/WX TMP DP RH WIND PRES REMARKS N CHARLESTON PTSUNNY 86 70 58 W7 30.03R HX 90 WATERFRONT PAR N/A 84 71 65 W5 30.01R MOUNT PLEASANT FAIR 86 72 62 SW7 30.03S HX 92 JOHNS ISLAND FAIR 86 72 62 W8 30.03S HX 92 PINOPOLIS NOT AVBL MONCKS CORNER FAIR 86 68 54 SW6 30.03R SUMMERVILLE FAIR 86 70 58 W5 30.04R HX 90 BEAUFORT MCAS PTSUNNY 86 71 60 W10 30.03S HX 91 BEAUFORT ARPT FAIR 86 73 66 W10 30.03S HX 93 HILTON HEAD IS SUNNY 86 72 62 S8 30.05 HX 92 WALTERBORO SUNNY 86 68 54 W7 30.04R ALLENDALE FAIR 86 72 62 VRB7 30.02S HX 92 ...SOUTHERN MIDLANDS AND PEE DEE... CITY SKY/WX TMP DP RH WIND PRES REMARKS GEORGETOWN NOT AVBL KINGSTREE NOT AVBL ORANGEBURG SUNNY 88 66 48 W13 30.01S HX 90 BARNWELL FAIR 88 72 58 SW8 30.02S HX 94 AIKEN FAIR N/A N/A N/A W13 30.05S MANNING FAIR 86 61 42 W9 30.02R COLUMBIA MOSUNNY 86 68 54 VRB6 29.99S SUMTER SUNNY 86 67 52 W7 29.98F FLORENCE SUNNY 88 66 48 W12 30.00S HX 90 MYRTLE BEACH SUNNY 88 66 48 W6 30.03S HX 90 N MYRTLE BEACH SUNNY 87 67 51 W7 30.01S HX 90 $$ GAZ063-065-086>088-099>101-113>116-118-119-134>141-150-301600- ...SOUTHEAST GEORGIA... CITY SKY/WX TMP DP RH WIND PRES REMARKS SAVANNAH ARPT PTSUNNY 87 70 56 W7 30.04R HX 92 HUNTER AAF MOSUNNY 87 74 66 SW9 30.02R HX 95 FORT STEWART MOSUNNY 85 73 65 VRB6 30.02S HX 91 STATESBORO SUNNY 86 74 68 W9 30.04R HX 94 SYLVANIA MOSUNNY 87 74 63 W7 30.04R HX 95 CLAXTON FAIR 86 73 66 W8 30.04R HX 93 ...CSRA...CENTRAL AND FAR SOUTHEAST GEORGIA... CITY SKY/WX TMP DP RH WIND PRES REMARKS THOMSON MOSUNNY 86 72 63 W7 30.06S HX 92 AUGUSTA-BUSH SUNNY 86 68 54 SW8 30.01R AUGUSTA-DANIEL SUNNY 86 68 54 SW8 30.03R SWAINSBORO FAIR 88 73 62 W8 30.05R HX 96 VIDALIA MOSUNNY 84 72 65 W5 30.04S EASTMAN FAIR 86 72 63 W9 30.07R HX 92 HAZLEHURST FAIR 87 74 65 CALM 30.04S HX 95 ALMA MOSUNNY 85 72 65 W7 30.05S HX 91 WAYCROSS PTSUNNY 88 78 70 W12 30.06R HX 101 JESUP FAIR 88 75 66 NW5 30.05F HX 97 BAXLEY FAIR 86 72 62 W5 30.04S HX 92 BRUNSWICK MOSUNNY 82 73 74 W7 30.07S SAINT SIMONS MOSUNNY 83 73 72 SW5 30.06S $$ SCZ027-028-034-036>038-045-046-048>050-GAZ119-141-301600- ...LAKE AND SUPPLEMENTAL COASTAL OBSERVATIONS... STATION/POSITION TIME TEMP WIND PRES WAVE SWELL AIR SEA DIR/SP/G HT/PER HT/PER/DIR (UTC) (F) (DEG/KT/KT) (MB) (FT/S) (FT/S/D) UPR LAKE MARION NOT AVBL WINYAH BAY NOT AVBL LAKE MURRAY 1400 81 250/ 7/ 11 1014.9F ACE BASIN NERRS NOT AVBL FORT PULASKI 1400 83 84 270/ 8/ 10 1017.5F SAPELO ISLAND 1400 82 240/ 7 1018.0S $$ ANZ835-935-AMZ111-154-330-350-352-354-370-450-454-472-301600- ...C-MAN AND BUOY OBSERVATIONS... STATION/POSITION TIME TEMP WIND PRES WAVE SWELL AIR SEA DIR/SP/G HT/PER HT/PER/DIR (UTC) (F) (DEG/KT/KT) (MB) (FT/S) (FT/S/D) BUOY 41004 1450 81 82 250/ 12/ 14 1017.0R 4/ 7 3/ 7 BUOY 41008 1450 78 80 210/ 10/ 12 1018.2R 2/ 8 2/120/ 8 FOLLY BEACH CMAN 1400 84 270/ 6/ 9 1016.9F CAPERS NEARSHORE 1408 82 250/ 10/ 14 1017.1R FRIPP NEARSHORE 1400 82 270/ 10/ 12 1016.7F STATION/POSITION TIME TEMP WIND PRES WAVE SWELL AIR SEA DIR/SP/G HT/PER HT/PER/DIR (UTC) (F) (DEG/KT/KT) (MB) (FT/S) (FT/S/D) 5E ST. MARYS GA 1421 78 N/A 2/ 8 FRYING PAN BUOY 1450 81 80 250/ 12/ 14 1017.1R 4/ 7 2/140/ 7 BUOY 41025 1450 80 82 220/ 10/ 12 1015.9S 3/ 8 3/110/ 8 CAPE LOOKOUT NC 1400 81 250/ 11/ 14 1015.7F BUOY 41002 1450 75 79 280/ 4/ 8 1019.1 5/ 7 5/210/ 7 BUOY 41010 1420 83 84 260/ 16/ 19 1020.2R ST AUGUSTINE FL 1500 83 74 250/ 9/ 12 1019.8F $$

USA.gov is the U.S. government's official web portal to all federal, state and local government web resources and services.